Regional Weather Roundup
Issued by NWS

Home | Current Version | Previous Version | Text Only | Print | Product List | Glossary Off
Versions: 1 2 3 4 5 6 7 8 9 10 11 12 13 14 15 16 17 18 19 20 21 22 23 24 25 26 27 28 29 30 31 32 33 34 35 36 37 38 39 40 41 42 43 44 45 46 47 48 49 50

000
ASUS43 KMPX 182310
RWRMN
WEATHER ROUNDUP FOR MINNESOTA
NATIONAL WEATHER SERVICE TWIN CITIES/CHANHASSEN MN
600 PM CDT FRI APR 18 2014


NOTE: "FAIR" INDICATES FEW OR NO CLOUDS BELOW 12,000 FEET WITH NO
SIGNIFICANT WEATHER AND/OR OBSTRUCTIONS TO VISIBILITY. N/A MEANS
CURRENT SKY AND/OR WEATHER CONDITIONS ARE NOT AVAILABLE.

MNZ060>063-068>070-190000-
   Twin Cities Metro

CITY           SKY/WX    TMP DP  RH WIND       PRES   REMARKS
TWIN CITIES    CLOUDY    51  26  37 SE17      30.25F
ST PAUL        CLOUDY    51  28  41 SE14      30.26F
CRYSTAL        CLOUDY    49  27  42 SE10G18   30.24F
EDEN PRAIRIE   CLOUDY    52  29  41 E14       30.23S
LAKEVILLE      CLOUDY    48  30  49 SE13      30.24S
SOUTH ST PAUL  CLOUDY    54  25  32 SE6       30.24F
LAKE ELMO      FAIR      50  28  43 E13       30.26F
$$
MNZ001>005-007-008-013>017-022>024-027-028-190000-
   Northwest Minnesota

CITY           SKY/WX    TMP DP  RH WIND       PRES   REMARKS
BEMIDJI        CLOUDY    46  21  37 SE20G31   30.16F
HALLOCK          N/A     48  23  37 SE16G25   30.07F
ROSEAU         MOSUNNY   48  18  29 SE16      30.14F
WARROAD        SUNNY     43  27  52 E10G17    30.17F
THIEF RVR FALL CLOUDY    48  23  37 SE24      30.10F
CROOKSTON      CLOUDY    50  28  43 SE21G29   30.08F
FOSSTON        CLOUDY    48  25  40 SE10G21   30.12S
DETROIT LAKES  PTSUNNY   45  28  53 SE23G30   30.11F
MOORHEAD       PTSUNNY   50  27  40 SE24G35   30.08S
PARK RAPIDS    PTSUNNY   46  23  40 SE22G29   30.15F
$$
MNZ006-009>011-018-025>026-190000-
   North Central Minnesota

CITY           SKY/WX    TMP DP  RH WIND       PRES   REMARKS
BAUDETTE       SUNNY     46  15  28 E18       30.19F
FLAG ISLAND    SUNNY     43  16  33 E13G18    30.20F
INTL FALLS     SUNNY     46  14  27 E14       30.25F
WASKISH        MOSUNNY   48  19  32 SE15G21   30.19F
BIG FORK       SUNNY     48  16  27 SE13      30.23F
LONGVILLE      CLOUDY    45  21  39 SE15G23   30.21F
GRAND RAPIDS   MOSUNNY   45  16  31 SE12G21   30.24F
CRANE LAKE     SUNNY     48  12  23 SE6       30.31F
ORR            MOSUNNY   46   7  19 E6        30.25F
COOK           MOSUNNY   46  12  25 SE9G17    30.28F
$$
MNZ012-019>021-037-190000-
   Northeast Minnesota

CITY           SKY/WX    TMP DP  RH WIND       PRES   REMARKS
DULUTH         SUNNY     37  18  46 E14       30.32F
ELY            SUNNY     43  18  36 E7        30.30F
HIBBING        MOSUNNY   46  18  32 SE16      30.27F
EVELETH        MOSUNNY   43  21  42 SE12      30.30S
DULUTH HARBOR  SUNNY     34  28  80 CALM      30.38S
TWO HARBORS    SUNNY     36  21  55 E13       30.34F
SILVER BAY     SUNNY     34  25  69 NE8       30.36S WCI  27
GRAND MARAIS     N/A     34  26  72 CALM      30.42S
G MARAIS ARPRT SUNNY     34  18  51 S6        30.36F WCI  29
$$
MNZ029>031-032-039>041-046>048-054>057-064-190000-
   West Central Minnesota

CITY           SKY/WX    TMP DP  RH WIND       PRES   REMARKS
FERGUS FALLS   MOSUNNY   46  23  39 SE26G32   30.08F
WHEATON        MOSUNNY   52  39  62 E36G44    30.05F
MORRIS         MOSUNNY   50  36  57 SE31G39   30.08F
ALEXANDRIA     MOSUNNY   45  29  53 SE15G26   30.16S
ELBOW LAKE     FAIR      46  31  56 SE21G32   30.11F
WADENA         PTSUNNY   43  27  52 SE16G25   30.17R
GLENWOOD       MOSUNNY   45  32  61 E20G32    30.16S
APPLETON       MOSUNNY   54  37  54 SE24G31   30.07F
BENSON         SUNNY     52  36  54 SE20G31   30.12F
ORTONVILLE     MOSUNNY   50  37  62 SE28G33   30.02F
MADISON        SUNNY     55  43  62 SE23G31   30.04F
WILLMAR        FAIR      48  34  57 SE23      30.15F
$$
MNZ033>034-036-042>043-049>051-058-059-190000-
   Central Minnesota

CITY           SKY/WX    TMP DP  RH WIND       PRES   REMARKS
ST CLOUD       CLOUDY    45  27  49 E13       30.22F
SAUK CENTRE    FAIR      45  29  53 E22       30.17F
PAYNESVILLE    PTSUNNY   46  29  52 E16G22    30.17F
AITKIN         PTSUNNY   46  19  34 SE10G17   30.24F
PINE RIVER     CLOUDY    43  25  49 SE17G26   30.24F
BRAINERD       CLOUDY    47  22  37 SE14G21   30.23F
STAPLES        CLOUDY    43  23  45 SE15G23   30.18F
LONG PRAIRIE   FAIR      43  28  56 E16G26    30.18F
LITTLE FALLS   CLOUDY    41  27  56 E9        30.21F
LITCHFIELD     PTSUNNY   46  34  61 E16       30.19S
BUFFALO        CLOUDY    47  30  51 E13       30.23F
MAPLE LAKE     CLOUDY    47  31  55 E10       30.22F
$$
MNZ037-044-045-052-053-190000-
   East Central Minnesota

CITY           SKY/WX    TMP DP  RH WIND       PRES   REMARKS
PRINCETON      CLOUDY    45  27  49 E13       30.26S
MORA           CLOUDY    41  23  48 E9        30.28F
CAMBRIDGE      CLOUDY    46  28  49 E8        30.25F
RUSH CITY      CLOUDY    44  21  40 E9        30.28F
MOOSE LAKE     MOSUNNY   46  19  34 SE5       30.27F
HINCKLEY       MOCLDY    45  21  39 SE8       30.29F
CLOQUET        MOSUNNY   39  14  35 E9        30.30F
MCGREGOR       PTSUNNY   45  21  39 SE14      30.26F
$$
MNZ071>073-080-081-089-090-097-098-190000-
   Southwest Minnesota

CITY           SKY/WX    TMP DP  RH WIND       PRES   REMARKS
MONTEVIDEO     SUNNY     54  39  58 S22G32    30.10S
GRANITE FALLS  SUNNY     53  38  57 E22       30.09F
CANBY          SUNNY     60  40  48 SE18G26   30.03F
MARSHALL       SUNNY     63  36  36 SE22G35   30.04F
REDWOOD FALLS  MOSUNNY   57  38  48 SE25G41   30.11F
OLIVIA         MOSUNNY   50  36  57 SE17      30.13F
PIPESTONE      SUNNY     63  32  31 S24G33    30.00F
WINDOM         SUNNY     61  30  31 SE22G33   30.11F
WORTHINGTON    SUNNY     63  30  29 SE25G33   30.09F
JACKSON        SUNNY     61  28  29 SE18G29   30.12F
TRACY          SUNNY     61  36  39 SE26G36   30.06F
SLAYTON        SUNNY     59  34  38 SE26G37   30.05F
$$
MNZ065>067-074>077-082>085-091>093-190000-
   South Central Minnesota

CITY           SKY/WX    TMP DP  RH WIND       PRES   REMARKS
MANKATO        MOSUNNY   55  32  41 SE21G26   30.21S
NEW ULM        SUNNY     55  36  47 SE21      30.15F
ST JAMES       SUNNY     59  36  41 E22       30.15F
FAIRMONT       SUNNY     59  30  33 SE17      30.17F
GLENCOE        PTSUNNY   53  31  43 E23       30.20F
FARIBAULT      PTSUNNY   55  27  33 E14       30.24S
OWATONNA       MOSUNNY   54  34  47 SE16G22   30.23S
WASECA         MOSUNNY   54  36  50 SE17G23   30.23F
ALBERT LEA     SUNNY     55  30  38 SE16G22   30.21F
$$
MNZ078>079-086>088-094>096-190000-
   Southeast Minnesota

CITY           SKY/WX    TMP DP  RH WIND       PRES   REMARKS
ROCHESTER      PTSUNNY   54  31  41 SE14      30.24F
RED WING       CLOUDY    52  27  37 SE8       30.26F
STANTON        PTSUNNY   52  29  40 E10G21    30.23F
DODGE CENTER   MOSUNNY   55  28  35 SE13      30.24F
WINONA         PTSUNNY   54  25  32 E8        30.29F
AUSTIN         SUNNY     55  30  38 SE10      30.23F
PRESTON        MOSUNNY   55  29  38 SE9       30.27S
$$
ABBREVIATIONS USED IN REMARKS
   TC - TEMPERATURES IN CELSIUS
  WCI - WIND CHILL INDEX
   HX - HEAT INDEX
  VSB - VISIBILITY
$$



USA.gov is the U.S. government's official web portal to all federal, state and local government web resources and services.